Regional Weather Roundup
Issued by NWS

Home | Current Version | Previous Version | Text Only | Print | Product List | Glossary On
Versions: 1 2 3 4 5 6 7 8 9 10 11 12 13 14 15 16 17 18 19 20 21 22 23 24 25 26 27 28 29 30 31 32 33 34 35 36 37 38 39 40 41 42 43 44 45 46 47 48 49 50
000
ASUS42 KFFC 131110
RWRGA
WEATHER ROUNDUP FOR GEORGIA
NATIONAL WEATHER SERVICE PEACHTREE CITY GA
600 AM EST WED NOV 13 2019

NOTE: "FAIR" INDICATES FEW OR NO CLOUDS BELOW 12,000 FEET WITH NO
SIGNIFICANT WEATHER AND/OR OBSTRUCTIONS TO VISIBILITY.

* = USE WITH CAUTION. THE STATIONS MARKED WITH AN ASTERISK MAY NOT
REPORT WEATHER SUCH AS PRECIPITATION, FOG, OR THUNDER AND ARE NOT
QUALITY CONTROLLED BY NWS.

THE REMARK "TC" DENOTES TEMPERATURE READING IN DEGREES CELSIUS.

GAZ001>058-131200-
NORTH GEORGIA

CITY           SKY/WX    TMP DP  RH WIND       PRES   REMARKS
ATLANTA        FAIR      25  17  72 N6        30.28R WCI  18
ATHENS         FAIR      26  18  71 NE9       30.31R WCI  17
CHAMBLEE       FAIR      21  18  88 N3        30.30R
PEACHTREE CITY FAIR      25  18  74 CALM      30.30R
ROME           FAIR      21  15  78 N3        30.33R
WEST ATLANTA   FAIR      22  18  85 N3        30.31R
GAINESVILLE    FAIR      24  19  81 NE5       30.30R WCI  18
CARTERSVILLE   FAIR      22  15  75 VRB3      30.34R


CITY           SKY/WX    TMP DP  RH WIND       PRES   REMARKS
DALTON*        FAIR      23  18  80 N5        30.35R WCI  17
LAWRENCEVILLE* FAIR      20  17  88 CALM      30.30R
MARIETTA       FAIR      22  17  81 CALM      30.29R
KENNESAW*      FAIR      21  18  88 W3        30.31R
CANTON*        FAIR      21  19  93 CALM      30.30R
BLAIRSVILLE*   FAIR      15  13  92 CALM      30.26S
$$

GAZ059>098-102>109-131200-
CENTRAL GEORGIA

CITY           SKY/WX    TMP DP  RH WIND       PRES   REMARKS
AUGUSTA-BUSH   FAIR      29  20  69 NE7       30.34R WCI  22
AUGUSTA-DANIEL FAIR      30  19  63 NE9       30.33R WCI  22
COLUMBUS       FAIR      27  19  72 NE6       30.30R WCI  20
MACON          FAIR      27  22  81 NE5       30.30R WCI  22
ROBINS AFB     CLEAR     28  24  85 CALM      30.30R


CITY           SKY/WX    TMP DP  RH WIND       PRES   REMARKS
LAGRANGE*      FAIR      23  17  77 CALM      30.30R
SYLVANIA*      FAIR      31  20  65 NE9       30.32R WCI  22
MILLEDGEVILLE* FAIR      32  27  80 NE8       30.32R WCI  25
$$

GAZ099>101-110>166-131200-
SOUTH GEORGIA

CITY           SKY/WX    TMP DP  RH WIND       PRES   REMARKS
SAVANNAH       FAIR      31  21  66 NE12G20   30.30R WCI  22
VALDOSTA       FAIR      37  30  75 N9        30.22R WCI  30
ALMA           FAIR      33  26  75 VRB5      30.26R WCI  29
ST SIMONS      CLOUDY    38  28  67 N16G23    30.23R WCI  29
FT STEWART     FAIR      31  20  64 NE10      30.27R WCI  22
ALBANY         MOCLDY    32  24  72 N7        30.28R WCI  26
HUNTER AFB     FAIR      31  20  64 N12       30.26R WCI  22
MOODY AFB      FAIR      33  28  82 N6        30.21R WCI  28
BRUNSWICK      CLOUDY    34  26  71 N12G20    30.25R WCI  26


CITY           SKY/WX    TMP DP  RH WIND       PRES   REMARKS
BAINBRIDGE*    FAIR      29  24  82 N8        30.26R WCI  21
MOULTRIE*      CLOUDY    36  30  80 NE6       30.24R WCI  31
VIDALIA*       FAIR      32  21  64 NE9       30.29R WCI  24
WAYCROSS*        N/A     35  19  51 MISG        N/A
DOUGLAS*       FAIR      37  29  73 NE10      30.27R WCI  30
$$



USA.gov is the U.S. government's official web portal to all federal, state and local government web resources and services.